User: anonymous   Login
Location: Waldport
(44.4270°N, 124.0680°W)
Time: 19:13:46
(UTC-07:00)
Language:

Cosmos 1023 Rocket - Orbit

View from above orbital plane
View from above orbital plane
View from above satellite
View from above satellite

Ground track
Ground track

The orbit data is extracted from the following two-line orbital elements,

1 10962U 78063B   16239.86879428 +.00000027 +00000-0 +16451-4 0  9995
2 10962 074.0794 042.2280 0024968 018.7087 341.4980 14.41042950003292
Epoch (UTC): 26 August 2016 20:51:03
Eccentricity: 0.0024968
inclination: 74.0794°
perigee height: 737 km
apogee height: 773 km
right ascension of ascending node: 42.2280°
argument of perigee: 18.7087°
revolutions per day: 14.41042950
mean anomaly at epoch: 341.4980°
orbit number at epoch: 329

The dashed part of the orbit path shows where the satellite is in the earth's shadow,  

DLR